• In Hungary
  • List of Countries
  • For 7 days
  • Water Temperature
  • Satellite Maps
  • Weather Map
  • News
  • Weather Widgets
  • user-avatar
    Login

    Hourly Weather Bashirovo

    Today, 17 July, Tuesday

    Time Temperature Precipitation Wind Pressure Humidity
    00:00 +26°C° 0.1 mm 5 mps 742 mmHg 63%
    01:00 +25°C° 0.1 mm 5 mps 742 mmHg 65%
    02:00 +25°C° 0.2 mm 5 mps 742 mmHg 66%
    03:00 +23°C° 0.2 mm 5 mps 742 mmHg 68%
    04:00 +23°C° 0 mm 5 mps 741 mmHg 72%
    05:00 +23°C° 0.5 mm 5 mps 741 mmHg 72%
    06:00 +23°C° 0.5 mm 6 mps 741 mmHg 73%
    07:00 +23°C° 0.5 mm 6 mps 741 mmHg 73%
    08:00 +24°C° 0 mm 6 mps 741 mmHg 70%
    09:00 +26°C° 0 mm 6 mps 741 mmHg 66%
    10:00 +26°C° 0 mm 6 mps 741 mmHg 63%
    11:00 +27°C° 0.2 mm 6 mps 741 mmHg 62%
    12:00 +27°C° 0.2 mm 6 mps 740 mmHg 62%
    13:00 +28°C° 0.2 mm 6 mps 740 mmHg 62%
    14:00 +27°C° 0.6 mm 6 mps 740 mmHg 63%
    15:00 +27°C° 0.6 mm 6 mps 740 mmHg 65%
    16:00 +27°C° 0.6 mm 6 mps 740 mmHg 67%
    17:00 +26°C° 0.1 mm 6 mps 740 mmHg 68%
    18:00 +26°C° 0.1 mm 6 mps 739 mmHg 69%
    19:00 +26°C° 0.1 mm 6 mps 739 mmHg 69%
    20:00 +25°C° 0.3 mm 5 mps 739 mmHg 71%
    21:00 +25°C° 0.3 mm 5 mps 739 mmHg 74%
    22:00 +23°C° 0.3 mm 4 mps 739 mmHg 76%
    23:00 +22°C° 0.1 mm 3 mps 739 mmHg 77%

    Tomorrow, 18 July, Wednesday

    Time Temperature Precipitation Wind Pressure Humidity
    00:00 +22°C° 0.1 mm 3 mps 739 mmHg 78%
    01:00 +23°C° 0.1 mm 2 mps 739 mmHg 80%
    02:00 +21°C° 0 mm 2 mps 739 mmHg 80%
    03:00 +22°C° 0 mm 1 mps 739 mmHg 80%
    04:00 +22°C° 0 mm 1 mps 739 mmHg 81%
    05:00 +23°C° 0 mm 1 mps 739 mmHg 77%
    06:00 +24°C° 0 mm 1 mps 739 mmHg 73%
    07:00 +25°C° 0 mm 1 mps 739 mmHg 69%
    08:00 +27°C° 0 mm 1 mps 739 mmHg 63%
    09:00 +28°C° 0 mm 1 mps 739 mmHg 57%
    10:00 +30°C° 0 mm 2 mps 739 mmHg 52%
    11:00 +30°C° 0 mm 2 mps 740 mmHg 49%
    12:00 +31°C° 0 mm 3 mps 740 mmHg 47%
    13:00 +31°C° 0 mm 3 mps 740 mmHg 45%
    14:00 +31°C° 0 mm 3 mps 740 mmHg 44%
    15:00 +32°C° 0 mm 4 mps 740 mmHg 44%
    16:00 +33°C° 0 mm 4 mps 740 mmHg 43%
    17:00 +31°C° 0 mm 3 mps 740 mmHg 46%
    18:00 +30°C° 0 mm 2 mps 740 mmHg 50%
    19:00 +29°C° 0 mm 2 mps 740 mmHg 53%
    20:00 +28°C° 0 mm 2 mps 741 mmHg 55%
    21:00 +27°C° 0 mm 1 mps 741 mmHg 57%
    22:00 +25°C° 0 mm 1 mps 741 mmHg 59%
    23:00 +25°C° 0 mm 1 mps 741 mmHg 60%

    Day after tomorrow, 19 July, Thursday

    Time Temperature Precipitation Wind Pressure Humidity
    00:00 +24°C° 0 mm 1 mps 741 mmHg 61%
    01:00 +24°C° 0 mm 1 mps 741 mmHg 62%
    02:00 +23°C° 0 mm 1 mps 741 mmHg 63%
    03:00 +23°C° 0 mm 1 mps 741 mmHg 64%
    04:00 +23°C° 0 mm 1 mps 742 mmHg 64%
    05:00 +24°C° 0 mm 1 mps 742 mmHg 63%
    06:00 +25°C° 0 mm 1 mps 742 mmHg 61%
    07:00 +25°C° 0 mm 1 mps 742 mmHg 60%
    08:00 +27°C° 0 mm 2 mps 742 mmHg 54%
    09:00 +29°C° 0 mm 2 mps 743 mmHg 48%
    10:00 +31°C° 0 mm 2 mps 743 mmHg 42%
    11:00 +31°C° 0 mm 2 mps 743 mmHg 41%
    12:00 +32°C° 0 mm 2 mps 743 mmHg 40%
    13:00 +33°C° 0 mm 3 mps 743 mmHg 38%
    14:00 +32°C° 0 mm 2 mps 743 mmHg 38%
    15:00 +32°C° 0 mm 2 mps 743 mmHg 38%
    16:00 +32°C° 0 mm 2 mps 743 mmHg 38%
    17:00 +32°C° 0 mm 1 mps 743 mmHg 40%
    18:00 +32°C° 0 mm 1 mps 743 mmHg 43%
    19:00 +29°C° 0 mm 0 mps 743 mmHg 46%
    20:00 +30°C° 0 mm 1 mps 743 mmHg 47%
    21:00 +28°C° 0 mm 1 mps 743 mmHg 49%
    22:00 +26°C° 0 mm 1 mps 743 mmHg 51%
    23:00 +26°C° 0 mm 1 mps 743 mmHg 53%

    20 July, Friday

    Time Temperature Precipitation Wind Pressure Humidity
    00:00 +25°C° 0 mm 1 mps 743 mmHg 55%
    01:00 +24°C° 0 mm 1 mps 743 mmHg 58%
    02:00 +24°C° 0 mm 1 mps 743 mmHg 59%
    03:00 +24°C° 0 mm 1 mps 743 mmHg 60%
    04:00 +23°C° 0 mm 1 mps 743 mmHg 62%
    05:00 +24°C° 0 mm 1 mps 744 mmHg 61%
    06:00 +25°C° 0 mm 1 mps 744 mmHg 60%
    07:00 +26°C° 0 mm 1 mps 744 mmHg 60%
    08:00 +28°C° 0 mm 2 mps 744 mmHg 55%
    09:00 +29°C° 0 mm 2 mps 744 mmHg 51%
    10:00 +31°C° 0 mm 2 mps 743 mmHg 46%
    11:00 +32°C° 0 mm 2 mps 743 mmHg 44%
    12:00 +34°C° 0 mm 2 mps 743 mmHg 41%
    13:00 +34°C° 0 mm 2 mps 743 mmHg 38%
    14:00 +34°C° 0 mm 2 mps 743 mmHg 39%
    15:00 +34°C° 0 mm 2 mps 743 mmHg 39%
    16:00 +34°C° 0 mm 2 mps 743 mmHg 39%
    17:00 +32°C° 0 mm 2 mps 743 mmHg 43%
    18:00 +32°C° 0 mm 2 mps 743 mmHg 46%
    19:00 +31°C° 0 mm 3 mps 743 mmHg 50%
    20:00 +29°C° 0 mm 3 mps 743 mmHg 54%
    21:00 +28°C° 0 mm 3 mps 743 mmHg 58%
    22:00 +26°C° 0 mm 3 mps 743 mmHg 63%
    23:00 +25°C° 0 mm 3 mps 743 mmHg 66%

    21 July, Saturday

    Time Temperature Precipitation Wind Pressure Humidity
    00:00 +25°C° 0 mm 3 mps 743 mmHg 69%
    01:00 +24°C° 0 mm 3 mps 743 mmHg 72%
    02:00 +22°C° 0 mm 3 mps 743 mmHg 74%
    03:00 +22°C° 0 mm 3 mps 743 mmHg 75%
    04:00 +21°C° 0 mm 3 mps 743 mmHg 77%
    05:00 +22°C° 0 mm 3 mps 743 mmHg 76%
    06:00 +23°C° 0 mm 4 mps 743 mmHg 75%
    07:00 +23°C° 0 mm 4 mps 743 mmHg 74%
    08:00 +26°C° 0 mm 5 mps 743 mmHg 70%
    09:00 +27°C° 0 mm 5 mps 743 mmHg 65%
    10:00 +28°C° 0 mm 5 mps 743 mmHg 60%
    11:00 +29°C° 0 mm 6 mps 743 mmHg 57%
    12:00 +30°C° 0 mm 6 mps 743 mmHg 53%
    13:00 +32°C° 0 mm 7 mps 743 mmHg 49%
    14:00 +33°C° 0 mm 7 mps 743 mmHg 49%
    15:00 +33°C° 0 mm 7 mps 743 mmHg 48%
    16:00 +33°C° 0 mm 7 mps 743 mmHg 48%
    17:00 +32°C° 0 mm 7 mps 743 mmHg 51%
    18:00 +30°C° 0 mm 6 mps 743 mmHg 55%
    19:00 +29°C° 0 mm 6 mps 743 mmHg 58%
    20:00 +28°C° 0.1 mm 6 mps 743 mmHg 62%
    21:00 +26°C° 0.1 mm 6 mps 744 mmHg 65%
    22:00 +24°C° 0.1 mm 6 mps 744 mmHg 69%
    23:00 +23°C° 0 mm 6 mps 744 mmHg 69%

    22 July, Sunday

    Time Temperature Precipitation Wind Pressure Humidity
    00:00 +23°C° 0 mm 6 mps 744 mmHg 69%
    01:00 +22°C° 0 mm 7 mps 744 mmHg 69%
    02:00 +22°C° 0 mm 7 mps 744 mmHg 70%
    03:00 +22°C° 0 mm 7 mps 744 mmHg 71%
    04:00 +21°C° 0 mm 7 mps 744 mmHg 72%
    05:00 +21°C° 0.2 mm 7 mps 745 mmHg 72%
    06:00 +22°C° 0.2 mm 8 mps 745 mmHg 72%
    07:00 +22°C° 0.2 mm 8 mps 745 mmHg 72%
    08:00 +23°C° 0.2 mm 8 mps 745 mmHg 69%
    09:00 +24°C° 0.2 mm 8 mps 745 mmHg 65%
    10:00 +26°C° 0.2 mm 8 mps 745 mmHg 61%
    11:00 +27°C° 0 mm 8 mps 745 mmHg 58%
    12:00 +28°C° 0 mm 8 mps 746 mmHg 55%
    13:00 +29°C° 0 mm 9 mps 746 mmHg 51%
    14:00 +31°C° 0 mm 9 mps 746 mmHg 50%
    15:00 +31°C° 0 mm 9 mps 746 mmHg 49%
    16:00 +31°C° 0 mm 8 mps 746 mmHg 48%
    17:00 +29°C° 0 mm 8 mps 746 mmHg 50%
    18:00 +28°C° 0 mm 7 mps 746 mmHg 51%
    19:00 +27°C° 0 mm 7 mps 746 mmHg 53%
    20:00 +26°C° 0 mm 7 mps 747 mmHg 52%
    21:00 +24°C° 0 mm 7 mps 747 mmHg 51%
    22:00 +22°C° 0 mm 8 mps 747 mmHg 49%
    23:00 +22°C° 0 mm 7 mps 747 mmHg 49%
    Show more